LOT1LH EGLL-EPWA

Flight info

Callsign LOT1LH
Flight time 2h 0m
Altitude 35000
Route BPK Q295 MATCH DCT REDFA DCT TACHA DCT GARLU DCT ALUKA DCT EKBUT L619 DENKO P851 BIMPA
Aircraft B738/M-SDE2E3FGHIRWXY/LB1

Departure

Time 2026-05-05 16:30
Airport London Heathrow Airport (EGLL)

Arrival

Time 2026-05-05 18:30
Airport Warsaw Chopin Airport (EPWA)
Time Latitude Longitude Altitude Speed Heading
2026-05-05 16:03 51.47037 -0.44676 85 ft 0 kts 270°
2026-05-05 16:07 51.47037 -0.44674 85 ft 2 kts 270°
2026-05-05 16:08 51.47037 -0.44635 86 ft 4 kts 270°
2026-05-05 16:08 51.47037 -0.44601 89 ft 4 kts 268°
2026-05-05 16:08 51.47043 -0.44565 90 ft 4 kts 212°
2026-05-05 16:08 51.47066 -0.44556 89 ft 4 kts 180°
2026-05-05 16:09 51.47080 -0.44556 88 ft 0 kts 180°
2026-05-05 16:12 51.47075 -0.44556 89 ft 4 kts 180°
2026-05-05 16:12 51.46889 -0.44555 89 ft 18 kts 180°
2026-05-05 16:13 51.46752 -0.44878 85 ft 14 kts 270°
2026-05-05 16:13 51.46751 -0.45027 85 ft 13 kts 270°
2026-05-05 16:13 51.46751 -0.45171 85 ft 13 kts 270°
2026-05-05 16:14 51.46749 -0.45453 85 ft 14 kts 270°
2026-05-05 16:14 51.46748 -0.45818 85 ft 19 kts 269°
2026-05-05 16:15 51.46747 -0.46287 89 ft 21 kts 270°
2026-05-05 16:15 51.46748 -0.46748 87 ft 20 kts 270°
2026-05-05 16:16 51.46746 -0.47181 87 ft 19 kts 270°
2026-05-05 16:16 51.46745 -0.47583 85 ft 18 kts 270°
2026-05-05 16:17 51.46743 -0.47963 85 ft 16 kts 270°
2026-05-05 16:17 51.46743 -0.48083 85 ft 2 kts 269°
2026-05-05 16:18 51.46743 -0.48089 85 ft 0 kts 269°
2026-05-05 16:20 51.46743 -0.48110 85 ft 4 kts 270°
2026-05-05 16:21 51.46673 -0.48213 85 ft 9 kts 179°
2026-05-05 16:22 51.46609 -0.48212 86 ft 0 kts 180°
2026-05-05 16:27 51.46603 -0.48212 86 ft 5 kts 180°
2026-05-05 16:27 51.46554 -0.48212 86 ft 7 kts 180°
2026-05-05 16:27 51.46508 -0.48213 87 ft 5 kts 180°
2026-05-05 16:27 51.46480 -0.48182 89 ft 5 kts 107°
2026-05-05 16:28 51.46480 -0.48166 88 ft 1 kts 90°
2026-05-05 16:28 51.46480 -0.48156 87 ft 1 kts 90°
2026-05-05 16:28 51.46480 -0.48139 87 ft 2 kts 90°
2026-05-05 16:28 51.46480 -0.48116 87 ft 3 kts 90°
2026-05-05 16:29 51.46481 -0.47864 86 ft 54 kts 90°
2026-05-05 16:29 51.46485 -0.46899 90 ft 117 kts 90°
2026-05-05 16:29 51.46492 -0.45304 89 ft 168 kts 88°
2026-05-05 16:29 51.46505 -0.43401 643 ft 170 kts 87°
2026-05-05 16:30 51.46650 -0.41564 1390 ft 160 kts 64°
2026-05-05 16:30 51.47166 -0.39927 1947 ft 170 kts 58°
2026-05-05 16:30 51.47893 -0.38321 2295 ft 192 kts 50°
2026-05-05 16:30 51.48791 -0.36584 2514 ft 213 kts 49°
2026-05-05 16:31 51.49778 -0.34696 2842 ft 230 kts 49°
2026-05-05 16:31 51.50860 -0.32628 3178 ft 250 kts 49°
2026-05-05 16:31 51.51978 -0.30478 3966 ft 250 kts 51°
2026-05-05 16:31 51.52791 -0.27990 4709 ft 256 kts 70°
2026-05-05 16:32 51.53345 -0.25242 5390 ft 261 kts 70°
2026-05-05 16:32 51.53918 -0.22466 5921 ft 261 kts 70°
2026-05-05 16:32 51.54614 -0.19763 5990 ft 264 kts 54°
2026-05-05 16:32 51.55720 -0.17390 6494 ft 269 kts 59°
2026-05-05 16:33 51.56442 -0.14645 7258 ft 270 kts 69°
2026-05-05 16:33 51.57086 -0.11746 7947 ft 274 kts 69°
2026-05-05 16:33 51.57729 -0.08835 8588 ft 279 kts 69°
2026-05-05 16:33 51.58374 -0.05909 9260 ft 283 kts 69°
2026-05-05 16:34 51.59037 -0.02903 9928 ft 287 kts 69°
2026-05-05 16:34 51.59693 0.00072 10297 ft 299 kts 69°
2026-05-05 16:34 51.60414 0.03337 10448 ft 320 kts 69°
2026-05-05 16:34 51.61182 0.06817 10609 ft 340 kts 69°
2026-05-05 16:35 51.61993 0.10500 10756 ft 359 kts 70°
2026-05-05 16:35 51.62846 0.14382 10891 ft 376 kts 70°
2026-05-05 16:35 51.63734 0.18428 11084 ft 390 kts 70°
2026-05-05 16:35 51.64587 0.22320 11490 ft 395 kts 70°
2026-05-05 16:36 51.65501 0.26504 12085 ft 396 kts 70°
2026-05-05 16:36 51.66416 0.30702 12693 ft 398 kts 70°
2026-05-05 16:36 51.67334 0.34919 13294 ft 400 kts 70°
2026-05-05 16:36 51.68259 0.39173 13836 ft 404 kts 70°
2026-05-05 16:37 51.69189 0.43461 14368 ft 407 kts 70°
2026-05-05 16:37 51.70124 0.47779 14904 ft 410 kts 70°
2026-05-05 16:37 51.71067 0.52141 15443 ft 413 kts 70°
2026-05-05 16:37 51.72012 0.56525 15999 ft 415 kts 70°
2026-05-05 16:38 51.72964 0.60949 16484 ft 419 kts 70°
2026-05-05 16:38 51.73923 0.65414 17003 ft 423 kts 70°
2026-05-05 16:38 51.74886 0.69913 17481 ft 426 kts 70°
2026-05-05 16:38 51.75857 0.74454 17989 ft 429 kts 70°
2026-05-05 16:39 51.76834 0.79034 18432 ft 433 kts 70°
2026-05-05 16:39 51.77814 0.83642 18850 ft 436 kts 70°
2026-05-05 16:39 51.78800 0.88284 19261 ft 439 kts 71°
2026-05-05 16:39 51.79790 0.92959 19661 ft 442 kts 71°
2026-05-05 16:40 51.80773 0.97610 20055 ft 445 kts 71°
2026-05-05 16:40 51.81775 1.02363 20380 ft 449 kts 72°
2026-05-05 16:40 51.82782 1.07152 20776 ft 452 kts 72°
2026-05-05 16:40 51.83794 1.11977 21173 ft 454 kts 72°
2026-05-05 16:41 51.84811 1.16835 21545 ft 457 kts 72°
2026-05-05 16:41 51.85830 1.21719 21922 ft 460 kts 72°
2026-05-05 16:41 51.86856 1.26641 22269 ft 463 kts 72°
2026-05-05 16:41 51.87885 1.31597 22626 ft 465 kts 72°
2026-05-05 16:42 51.88917 1.36578 22956 ft 468 kts 72°
2026-05-05 16:42 51.89954 1.41591 23293 ft 470 kts 73°
2026-05-05 16:42 51.90993 1.46628 23586 ft 473 kts 72°
2026-05-05 16:42 51.92032 1.51679 23937 ft 473 kts 73°
2026-05-05 16:43 51.93073 1.56749 24261 ft 474 kts 73°
2026-05-05 16:43 51.94111 1.61822 24504 ft 477 kts 73°
2026-05-05 16:43 51.95156 1.66941 24730 ft 479 kts 73°
2026-05-05 16:43 51.96202 1.72081 24986 ft 481 kts 73°
2026-05-05 16:44 51.97253 1.77253 25233 ft 483 kts 73°
2026-05-05 16:44 51.98301 1.82430 25491 ft 484 kts 73°
2026-05-05 16:44 51.99354 1.87638 25812 ft 484 kts 73°
2026-05-05 16:44 52.00398 1.92820 26194 ft 483 kts 73°
2026-05-05 16:45 52.01438 1.97996 26549 ft 482 kts 74°
2026-05-05 16:45 52.02472 2.03152 26918 ft 481 kts 74°
2026-05-05 16:45 52.03504 2.08319 27227 ft 481 kts 73°
2026-05-05 16:45 52.04525 2.13438 27446 ft 484 kts 73°
2026-05-05 16:46 52.05572 2.18711 27746 ft 484 kts 73°
2026-05-05 16:46 52.06603 2.23906 28144 ft 482 kts 73°
2026-05-05 16:46 52.07626 2.29081 28547 ft 480 kts 73°
2026-05-05 16:46 52.08646 2.34253 28904 ft 480 kts 73°
2026-05-05 16:47 52.09651 2.39358 29217 ft 481 kts 73°
2026-05-05 16:47 52.10667 2.44533 29555 ft 480 kts 73°
2026-05-05 16:47 52.11680 2.49710 29937 ft 478 kts 74°
2026-05-05 16:47 52.12673 2.54866 30291 ft 477 kts 75°
2026-05-05 16:48 52.13651 2.60017 30578 ft 476 kts 75°
2026-05-05 16:48 52.14625 2.65176 30839 ft 477 kts 75°
2026-05-05 16:48 52.15596 2.70337 31114 ft 476 kts 75°
2026-05-05 16:48 52.16564 2.75485 31408 ft 476 kts 75°
2026-05-05 16:49 52.17532 2.80639 31689 ft 475 kts 75°
2026-05-05 16:49 52.18495 2.85773 31968 ft 474 kts 75°
2026-05-05 16:49 52.19458 2.90921 32242 ft 474 kts 75°
2026-05-05 16:49 52.20415 2.96053 32515 ft 473 kts 75°
2026-05-05 16:50 52.21372 3.01196 32745 ft 474 kts 76°
2026-05-05 16:50 52.22327 3.06346 32975 ft 474 kts 76°
2026-05-05 16:50 52.23279 3.11489 33262 ft 473 kts 76°
2026-05-05 16:50 52.24228 3.16625 33586 ft 472 kts 76°
2026-05-05 16:51 52.25171 3.21752 33809 ft 472 kts 76°
2026-05-05 16:51 52.26007 3.26853 34021 ft 471 kts 81°
2026-05-05 16:51 52.26630 3.32090 34222 ft 469 kts 83°
2026-05-05 16:51 52.27170 3.37344 34420 ft 469 kts 83°
2026-05-05 16:52 52.27680 3.42604 34594 ft 469 kts 84°
2026-05-05 16:52 52.28188 3.47868 34750 ft 470 kts 84°
2026-05-05 16:52 52.29240 3.58461 34923 ft 474 kts 84°
2026-05-05 16:53 52.30331 3.69126 34930 ft 475 kts 83°
2026-05-05 16:53 52.31425 3.79749 34921 ft 473 kts 83°
2026-05-05 16:54 52.32506 3.90331 34926 ft 471 kts 84°
2026-05-05 16:54 52.33572 4.00887 34907 ft 470 kts 84°
2026-05-05 16:55 52.34628 4.11456 34926 ft 471 kts 84°
2026-05-05 16:55 52.35676 4.22050 34922 ft 473 kts 84°
2026-05-05 16:56 52.36719 4.32696 34922 ft 475 kts 84°
2026-05-05 16:56 52.37757 4.43391 34911 ft 477 kts 84°
2026-05-05 16:57 52.38790 4.54130 34908 ft 478 kts 84°
2026-05-05 16:57 52.39816 4.64904 34907 ft 479 kts 84°
2026-05-05 16:58 52.40827 4.75630 34911 ft 479 kts 84°
2026-05-05 16:58 52.41834 4.86419 34911 ft 479 kts 85°
2026-05-05 16:59 52.42831 4.97218 34899 ft 479 kts 85°
2026-05-05 16:59 52.43818 5.08014 34910 ft 478 kts 85°
2026-05-05 17:00 52.44792 5.18782 34905 ft 478 kts 85°
2026-05-05 17:00 52.45757 5.29564 34913 ft 477 kts 85°
2026-05-05 17:01 52.46696 5.40167 34914 ft 477 kts 85°
2026-05-05 17:01 52.47638 5.50930 34900 ft 477 kts 85°
2026-05-05 17:02 52.48570 5.61685 34913 ft 476 kts 85°
2026-05-05 17:02 52.49493 5.72449 34904 ft 476 kts 85°
2026-05-05 17:03 52.50401 5.83155 34910 ft 477 kts 85°
2026-05-05 17:03 52.51305 5.93940 34910 ft 477 kts 85°
2026-05-05 17:04 52.52199 6.04723 34902 ft 477 kts 85°
2026-05-05 17:04 52.53084 6.15517 34923 ft 477 kts 85°
2026-05-05 17:05 52.53814 6.24517 34921 ft 478 kts 85°
2026-05-05 17:05 52.54682 6.35341 34916 ft 478 kts 85°
2026-05-05 17:06 52.55543 6.46197 34908 ft 479 kts 85°
2026-05-05 17:06 52.56394 6.57058 34902 ft 479 kts 86°
2026-05-05 17:07 52.57236 6.67935 34900 ft 480 kts 86°
2026-05-05 17:07 52.58068 6.78829 34906 ft 481 kts 85°
2026-05-05 17:08 52.58894 6.89767 34889 ft 482 kts 86°
2026-05-05 17:08 52.59711 7.00725 34894 ft 483 kts 86°
2026-05-05 17:09 52.60520 7.11706 34880 ft 484 kts 87°
2026-05-05 17:09 52.61313 7.22633 34882 ft 485 kts 87°
2026-05-05 17:10 52.62109 7.33728 34882 ft 485 kts 87°
2026-05-05 17:10 52.62883 7.44677 34885 ft 485 kts 87°
2026-05-05 17:11 52.63654 7.55713 34870 ft 486 kts 88°
2026-05-05 17:11 52.64415 7.66780 34879 ft 486 kts 88°
2026-05-05 17:12 52.65166 7.77847 34886 ft 487 kts 88°
2026-05-05 17:12 52.65909 7.88936 34881 ft 488 kts 88°
2026-05-05 17:13 52.66643 8.00072 34879 ft 488 kts 88°
2026-05-05 17:13 52.67367 8.11200 34879 ft 489 kts 88°
2026-05-05 17:14 52.68081 8.22344 34884 ft 489 kts 88°
2026-05-05 17:14 52.68785 8.33508 34884 ft 490 kts 88°
2026-05-05 17:15 52.69474 8.44600 34884 ft 490 kts 88°
2026-05-05 17:15 52.70158 8.55775 34884 ft 490 kts 88°
2026-05-05 17:16 52.70833 8.66982 34879 ft 491 kts 88°
2026-05-05 17:16 52.71498 8.78209 34888 ft 493 kts 88°
2026-05-05 17:17 52.72155 8.89492 34878 ft 495 kts 89°
2026-05-05 17:17 52.72803 9.00799 34886 ft 496 kts 89°
2026-05-05 17:18 52.73443 9.12136 34872 ft 496 kts 89°
2026-05-05 17:18 52.74071 9.23472 34875 ft 496 kts 89°
2026-05-05 17:19 52.74689 9.34823 34879 ft 496 kts 89°
2026-05-05 17:19 52.75291 9.46084 34880 ft 495 kts 89°
2026-05-05 17:20 52.75885 9.57410 34878 ft 495 kts 89°
2026-05-05 17:20 52.76468 9.68724 34886 ft 494 kts 89°
2026-05-05 17:21 52.77040 9.80031 34881 ft 494 kts 89°
2026-05-05 17:22 52.77876 9.96982 34883 ft 493 kts 89°
2026-05-05 17:22 52.78420 10.08274 34881 ft 493 kts 89°
2026-05-05 17:23 52.78952 10.19550 34881 ft 493 kts 89°
2026-05-05 17:23 52.79474 10.30841 34884 ft 493 kts 89°
2026-05-05 17:24 52.79985 10.42133 34888 ft 494 kts 89°
2026-05-05 17:24 52.80487 10.53485 34877 ft 495 kts 89°
2026-05-05 17:25 52.80980 10.64850 34858 ft 497 kts 89°
2026-05-05 17:25 52.81460 10.76170 34873 ft 498 kts 89°
2026-05-05 17:26 52.81934 10.87604 34876 ft 499 kts 89°
2026-05-05 17:26 52.82398 10.99079 34871 ft 500 kts 89°
2026-05-05 17:27 52.82837 11.10558 34867 ft 500 kts 91°
2026-05-05 17:27 52.82787 11.22009 34863 ft 497 kts 96°
2026-05-05 17:28 52.82485 11.33432 34867 ft 498 kts 96°
2026-05-05 17:28 52.82201 11.44883 34870 ft 498 kts 96°
2026-05-05 17:29 52.81963 11.56332 34868 ft 499 kts 95°
2026-05-05 17:29 52.81738 11.67800 34846 ft 499 kts 95°
2026-05-05 17:30 52.81505 11.79253 34859 ft 499 kts 95°
2026-05-05 17:30 52.81258 11.90721 34869 ft 499 kts 96°
2026-05-05 17:31 52.80999 12.02122 34865 ft 499 kts 96°
2026-05-05 17:31 52.80727 12.13577 34855 ft 499 kts 96°
2026-05-05 17:32 52.80444 12.25037 34847 ft 499 kts 96°
2026-05-05 17:32 52.80150 12.36494 34864 ft 499 kts 96°
2026-05-05 17:33 52.79846 12.47944 34866 ft 499 kts 96°
2026-05-05 17:33 52.79530 12.59407 34858 ft 499 kts 96°
2026-05-05 17:34 52.79203 12.70874 34850 ft 500 kts 96°
2026-05-05 17:34 52.78864 12.82346 34859 ft 499 kts 96°
2026-05-05 17:35 52.78515 12.93812 34861 ft 500 kts 96°
2026-05-05 17:35 52.78155 13.05278 34853 ft 500 kts 96°
2026-05-05 17:36 52.77783 13.16745 34855 ft 500 kts 96°
2026-05-05 17:36 52.77400 13.28210 34843 ft 500 kts 96°
2026-05-05 17:37 52.77009 13.39606 34849 ft 500 kts 96°
2026-05-05 17:37 52.76604 13.51076 34850 ft 500 kts 96°
2026-05-05 17:38 52.76188 13.62549 34849 ft 501 kts 96°
2026-05-05 17:38 52.75760 13.74023 34839 ft 501 kts 96°
2026-05-05 17:39 52.75322 13.85496 34851 ft 500 kts 96°
2026-05-05 17:39 52.74873 13.96953 34855 ft 500 kts 96°
2026-05-05 17:40 52.74412 14.08413 34845 ft 501 kts 96°
2026-05-05 17:40 52.73940 14.19885 34848 ft 500 kts 96°
2026-05-05 17:41 52.73458 14.31330 34839 ft 499 kts 96°
2026-05-05 17:41 52.72966 14.42760 34842 ft 499 kts 96°
2026-05-05 17:42 52.72463 14.54174 34841 ft 499 kts 96°
2026-05-05 17:42 52.71949 14.65585 34838 ft 498 kts 96°
2026-05-05 17:43 52.71426 14.76969 34838 ft 498 kts 96°
2026-05-05 17:43 52.70894 14.88281 34840 ft 497 kts 97°
2026-05-05 17:44 52.70349 14.99652 34841 ft 497 kts 97°
2026-05-05 17:44 52.69793 15.11020 34836 ft 497 kts 97°
2026-05-05 17:45 52.69227 15.22380 34827 ft 497 kts 97°
2026-05-05 17:45 52.68650 15.33726 34838 ft 497 kts 97°
2026-05-05 17:46 52.68062 15.45075 34841 ft 496 kts 97°
2026-05-05 17:46 52.67464 15.56410 34836 ft 496 kts 97°
2026-05-05 17:47 52.66855 15.67742 34837 ft 496 kts 97°
2026-05-05 17:47 52.66236 15.79064 34836 ft 496 kts 97°
2026-05-05 17:48 52.65607 15.90363 34837 ft 495 kts 97°
2026-05-05 17:48 52.64970 16.01581 34843 ft 494 kts 97°
2026-05-05 17:49 52.64319 16.12854 34841 ft 495 kts 97°
2026-05-05 17:49 52.63658 16.24135 34823 ft 495 kts 97°
2026-05-05 17:50 52.62987 16.35414 34839 ft 495 kts 97°
2026-05-05 17:50 52.62304 16.46700 34834 ft 496 kts 97°
2026-05-05 17:51 52.61610 16.57996 34838 ft 496 kts 97°
2026-05-05 17:51 52.61025 16.67370 34832 ft 496 kts 97°
2026-05-05 17:52 52.60311 16.78659 34830 ft 496 kts 97°
2026-05-05 17:52 52.59588 16.89932 34829 ft 495 kts 98°
2026-05-05 17:53 52.58855 17.01178 34832 ft 494 kts 98°
2026-05-05 17:53 52.58116 17.12349 34830 ft 494 kts 98°
2026-05-05 17:54 52.57358 17.23635 34808 ft 494 kts 98°
2026-05-05 17:54 52.56595 17.34836 34821 ft 493 kts 98°
2026-05-05 17:55 52.55827 17.45959 34825 ft 492 kts 98°
2026-05-05 17:55 52.55045 17.57129 34825 ft 492 kts 98°
2026-05-05 17:56 52.54253 17.68297 34826 ft 492 kts 98°
2026-05-05 17:56 52.53449 17.79457 34815 ft 491 kts 98°
2026-05-05 17:57 52.52637 17.90591 34817 ft 491 kts 98°
2026-05-05 17:57 52.51816 18.01715 34819 ft 491 kts 98°
2026-05-05 17:58 52.50983 18.12844 34814 ft 491 kts 98°
2026-05-05 17:58 52.50145 18.23891 34804 ft 491 kts 98°
2026-05-05 17:59 52.49324 18.35013 34813 ft 491 kts 97°
2026-05-05 17:59 52.48535 18.46130 34804 ft 491 kts 97°
2026-05-05 18:00 52.47736 18.57253 34812 ft 491 kts 97°
2026-05-05 18:00 52.46919 18.68379 34811 ft 491 kts 97°
2026-05-05 18:00 52.46503 18.73955 34616 ft 494 kts 97°
2026-05-05 18:01 52.46084 18.79549 34162 ft 495 kts 97°
2026-05-05 18:01 52.45662 18.85140 33481 ft 493 kts 97°
2026-05-05 18:01 52.45239 18.90711 32743 ft 492 kts 98°
2026-05-05 18:01 52.44813 18.96282 32048 ft 491 kts 98°
2026-05-05 18:02 52.44386 19.01840 31306 ft 492 kts 98°
2026-05-05 18:02 52.43955 19.07406 30561 ft 492 kts 98°
2026-05-05 18:02 52.43523 19.12962 29808 ft 492 kts 98°
2026-05-05 18:02 52.43085 19.18541 28884 ft 493 kts 98°
2026-05-05 18:03 52.42646 19.24115 27985 ft 493 kts 98°
2026-05-05 18:03 52.42204 19.29678 27128 ft 492 kts 98°
2026-05-05 18:03 52.41760 19.35250 26203 ft 493 kts 98°
2026-05-05 18:03 52.41312 19.40824 25360 ft 492 kts 98°
2026-05-05 18:04 52.40871 19.46281 24650 ft 489 kts 99°
2026-05-05 18:04 52.40421 19.51830 24044 ft 482 kts 99°
2026-05-05 18:04 52.40024 19.56112 23605 ft 477 kts 99°
2026-05-05 18:04 52.39560 19.61492 22791 ft 476 kts 99°
2026-05-05 18:05 52.39131 19.66826 22076 ft 471 kts 98°
2026-05-05 18:05 52.38712 19.72119 21411 ft 466 kts 98°
2026-05-05 18:05 52.38294 19.77348 20757 ft 461 kts 99°
2026-05-05 18:05 52.37872 19.82513 20111 ft 456 kts 99°
2026-05-05 18:06 52.37447 19.87634 19476 ft 452 kts 99°
2026-05-05 18:06 52.37163 19.90999 19058 ft 449 kts 99°
2026-05-05 18:06 52.36591 19.97723 18219 ft 444 kts 99°
2026-05-05 18:06 52.36163 20.02714 17499 ft 441 kts 99°
2026-05-05 18:07 52.35736 20.07661 16833 ft 437 kts 99°
2026-05-05 18:07 52.35312 20.12554 16187 ft 432 kts 100°
2026-05-05 18:07 52.34891 20.17390 15564 ft 428 kts 100°
2026-05-05 18:07 52.34473 20.22173 14928 ft 424 kts 100°
2026-05-05 18:08 52.34054 20.26932 14325 ft 421 kts 101°
2026-05-05 18:08 52.33638 20.31649 13726 ft 418 kts 101°
2026-05-05 18:08 52.33221 20.36354 13051 ft 416 kts 101°
2026-05-05 18:08 52.32805 20.41016 12504 ft 412 kts 101°
2026-05-05 18:09 52.32394 20.45612 12117 ft 405 kts 101°
2026-05-05 18:09 52.31986 20.50145 11742 ft 404 kts 101°
2026-05-05 18:09 52.31573 20.54706 11374 ft 406 kts 101°
2026-05-05 18:09 52.31158 20.59269 11010 ft 405 kts 101°
2026-05-05 18:10 52.30748 20.63783 10708 ft 397 kts 101°
2026-05-05 18:10 52.30349 20.68161 10515 ft 383 kts 101°
2026-05-05 18:10 52.29962 20.72397 10331 ft 370 kts 102°
2026-05-05 18:10 52.29586 20.76480 10164 ft 358 kts 102°
2026-05-05 18:11 52.29220 20.80429 10023 ft 347 kts 102°
2026-05-05 18:11 52.28864 20.84258 9943 ft 334 kts 102°
2026-05-05 18:11 52.28522 20.87931 9933 ft 320 kts 102°
2026-05-05 18:11 52.28194 20.91444 9913 ft 307 kts 102°
2026-05-05 18:12 52.27878 20.94812 9757 ft 299 kts 102°
2026-05-05 18:12 52.27550 20.98249 9223 ft 306 kts 102°
2026-05-05 18:12 52.26967 21.01553 8820 ft 299 kts 125°
2026-05-05 18:12 52.25662 21.04034 8607 ft 285 kts 146°
2026-05-05 18:13 52.24007 21.05699 8339 ft 277 kts 157°
2026-05-05 18:13 52.22299 21.07125 8055 ft 275 kts 158°
2026-05-05 18:13 52.20629 21.08518 7836 ft 271 kts 157°
2026-05-05 18:13 52.18981 21.09916 7717 ft 263 kts 157°
2026-05-05 18:14 52.17384 21.11283 7605 ft 256 kts 157°
2026-05-05 18:14 52.15834 21.12616 7491 ft 248 kts 157°
2026-05-05 18:14 52.14319 21.13925 7259 ft 246 kts 157°
2026-05-05 18:14 52.12817 21.15238 7026 ft 244 kts 157°
2026-05-05 18:15 52.11326 21.16544 6782 ft 243 kts 157°
2026-05-05 18:15 52.09842 21.17843 6537 ft 242 kts 157°
2026-05-05 18:15 52.08360 21.19139 6288 ft 241 kts 157°
2026-05-05 18:15 52.06883 21.20430 6017 ft 241 kts 157°
2026-05-05 18:16 52.05408 21.21719 5764 ft 240 kts 156°
2026-05-05 18:16 52.03934 21.23004 5513 ft 240 kts 156°
2026-05-05 18:16 52.02464 21.24284 5249 ft 240 kts 156°
2026-05-05 18:16 52.00998 21.25561 5019 ft 238 kts 156°
2026-05-05 18:17 51.99566 21.26801 4949 ft 230 kts 157°
2026-05-05 18:17 51.98088 21.27537 4851 ft 218 kts 185°
2026-05-05 18:17 51.96681 21.26852 4809 ft 213 kts 217°
2026-05-05 18:17 51.95781 21.24962 4796 ft 219 kts 249°
2026-05-05 18:18 51.95694 21.22473 4805 ft 231 kts 279°
2026-05-05 18:18 51.96199 21.19980 4822 ft 234 kts 286°
2026-05-05 18:18 51.96777 21.17541 4778 ft 228 kts 287°
2026-05-05 18:18 51.97347 21.15191 4740 ft 218 kts 287°
2026-05-05 18:19 51.98050 21.13048 4713 ft 216 kts 311°
2026-05-05 18:19 51.99370 21.11854 4764 ft 223 kts 333°
2026-05-05 18:19 52.00734 21.10675 4577 ft 221 kts 321°
2026-05-05 18:19 52.02036 21.09398 4324 ft 217 kts 327°
2026-05-05 18:20 52.03374 21.08270 3933 ft 216 kts 327°
2026-05-05 18:20 52.04683 21.07142 3544 ft 216 kts 327°
2026-05-05 18:20 52.06083 21.06251 3137 ft 221 kts 351°
2026-05-05 18:20 52.07588 21.06693 3046 ft 228 kts 29°
2026-05-05 18:21 52.08756 21.08405 3009 ft 226 kts 54°
2026-05-05 18:21 52.09684 21.10438 2996 ft 222 kts 56°
2026-05-05 18:21 52.10592 21.12469 2995 ft 222 kts 57°
2026-05-05 18:21 52.11474 21.14528 2984 ft 221 kts 66°
2026-05-05 18:22 52.11787 21.16873 2993 ft 208 kts 103°
2026-05-05 18:22 52.11165 21.18837 2997 ft 192 kts 145°
2026-05-05 18:22 52.10054 21.19975 3002 ft 190 kts 156°
2026-05-05 18:22 52.08876 21.20980 3002 ft 192 kts 156°
2026-05-05 18:23 52.07674 21.21987 3008 ft 197 kts 157°
2026-05-05 18:23 52.06448 21.23004 2999 ft 197 kts 157°
2026-05-05 18:23 52.05232 21.24013 2983 ft 195 kts 157°
2026-05-05 18:23 52.04037 21.25015 2981 ft 193 kts 157°
2026-05-05 18:24 52.02843 21.26020 2989 ft 194 kts 157°
2026-05-05 18:24 52.01626 21.26940 2982 ft 192 kts 170°
2026-05-05 18:24 52.00351 21.26767 2989 ft 184 kts 207°
2026-05-05 18:24 51.99397 21.25403 3005 ft 185 kts 227°
2026-05-05 18:25 51.98545 21.23824 3003 ft 187 kts 227°
2026-05-05 18:25 51.97977 21.22778 2997 ft 188 kts 227°
2026-05-05 18:25 51.96835 21.20652 2986 ft 189 kts 232°
2026-05-05 18:25 51.96416 21.18644 2991 ft 195 kts 268°
2026-05-05 18:26 51.96842 21.16529 3001 ft 203 kts 294°
2026-05-05 18:26 51.97576 21.14551 2994 ft 206 kts 296°
2026-05-05 18:26 51.98399 21.12631 2979 ft 212 kts 311°
2026-05-05 18:26 51.99705 21.11496 3009 ft 216 kts 336°
2026-05-05 18:27 52.01042 21.10418 2993 ft 214 kts 321°
2026-05-05 18:27 52.02316 21.09149 2991 ft 217 kts 328°
2026-05-05 18:27 52.03665 21.08012 2889 ft 221 kts 328°
2026-05-05 18:27 52.05027 21.06840 2647 ft 220 kts 327°
2026-05-05 18:28 52.07663 21.04529 2101 ft 206 kts 328°
2026-05-05 18:28 52.08886 21.03456 1821 ft 195 kts 327°
2026-05-05 18:28 52.10047 21.02437 1569 ft 184 kts 327°
2026-05-05 18:29 52.11147 21.01471 1350 ft 174 kts 327°
2026-05-05 18:29 52.12199 21.00547 1120 ft 170 kts 328°
2026-05-05 18:29 52.13228 20.99657 921 ft 167 kts 330°
2026-05-05 18:29 52.14255 20.98751 700 ft 166 kts 331°
2026-05-05 18:30 52.15221 20.97899 484 ft 148 kts 331°
2026-05-05 18:30 52.16099 20.97134 337 ft 135 kts 330°
2026-05-05 18:30 52.16764 20.96545 335 ft 78 kts 331°
2026-05-05 18:30 52.17150 20.96254 335 ft 43 kts 350°
2026-05-05 18:31 52.17327 20.96246 337 ft 8 kts
2026-05-05 18:31 52.17371 20.96255 338 ft 5 kts 20°
2026-05-05 18:31 52.17386 20.96273 336 ft 0 kts 43°
2026-05-05 18:32 52.17389 20.96278 336 ft 2 kts 44°
2026-05-05 18:32 52.17407 20.96320 336 ft 7 kts 62°
2026-05-05 18:32 52.17438 20.96415 335 ft 12 kts 62°
2026-05-05 18:32 52.17462 20.96555 338 ft 14 kts 111°
2026-05-05 18:33 52.17387 20.96639 336 ft 13 kts 152°
2026-05-05 18:33 52.17323 20.96694 333 ft 9 kts 151°
2026-05-05 18:33 52.17273 20.96738 336 ft 8 kts 151°
2026-05-05 18:33 52.17241 20.96766 336 ft 3 kts 151°
2026-05-05 18:34 52.17224 20.96781 336 ft 3 kts 152°
2026-05-05 18:34 52.17208 20.96796 338 ft 3 kts 150°
2026-05-05 18:34 52.17191 20.96812 334 ft 3 kts 150°
2026-05-05 18:34 52.17164 20.96836 336 ft 5 kts 151°
2026-05-05 18:35 52.17142 20.96855 335 ft 6 kts 152°